TimeEDT,TemperatureF,Dew PointF,Humidity,Sea Level PressureIn,VisibilityMPH,Wind Direction,Wind SpeedMPH,Gust SpeedMPH,PrecipitationIn,Events,Conditions,WindDirDegrees,DateUTC
12:53 AM,72.0,68.0,87,29.87,10.0,West,10.4,-,N/A,,Partly Cloudy,280,2013-07-24 04:53:00
1:53 AM,71.1,68.0,90,29.85,10.0,West,6.9,-,N/A,,Clear,280,2013-07-24 05:53:00
2:18 AM,71.6,68.0,88,29.89,10.0,West,6.9,-,N/A,,Partly Cloudy,280,2013-07-24 06:18:00
2:45 AM,71.6,68.0,88,29.88,10.0,West,5.8,-,N/A,,Mostly Cloudy,280,2013-07-24 06:45:00
2:53 AM,71.1,68.0,90,29.83,10.0,WNW,6.9,-,N/A,,Mostly Cloudy,300,2013-07-24 06:53:00
3:11 AM,71.6,68.0,88,29.87,10.0,West,6.9,-,N/A,,Scattered Clouds,270,2013-07-24 07:11:00
3:36 AM,71.6,68.0,88,29.87,10.0,West,9.2,-,N/A,,Mostly Cloudy,270,2013-07-24 07:36:00
3:53 AM,71.1,68.0,90,29.83,10.0,West,8.1,-,N/A,,Mostly Cloudy,270,2013-07-24 07:53:00
4:03 AM,71.6,68.0,88,29.87,10.0,West,8.1,-,N/A,,Scattered Clouds,280,2013-07-24 08:03:00
4:53 AM,70.0,68.0,93,29.82,10.0,West,10.4,-,N/A,,Clear,270,2013-07-24 08:53:00
5:53 AM,70.0,68.0,93,29.84,10.0,West,9.2,-,N/A,,Clear,280,2013-07-24 09:53:00
6:53 AM,71.1,68.0,90,29.85,8.0,WNW,8.1,-,N/A,,Clear,300,2013-07-24 10:53:00
7:53 AM,73.0,68.0,84,29.85,10.0,WNW,6.9,-,N/A,,Clear,300,2013-07-24 11:53:00
8:53 AM,75.0,69.1,82,29.86,10.0,NW,5.8,-,N/A,,Clear,310,2013-07-24 12:53:00
9:08 AM,75.2,69.8,83,29.90,10.0,WNW,6.9,-,N/A,,Partly Cloudy,290,2013-07-24 13:08:00
9:53 AM,78.1,69.1,74,29.86,10.0,West,5.8,-,N/A,,Clear,280,2013-07-24 13:53:00
10:53 AM,80.1,69.1,69,29.87,10.0,WNW,8.1,-,N/A,,Clear,290,2013-07-24 14:53:00
11:53 AM,82.0,70.0,67,29.87,10.0,Variable,5.8,-,N/A,,Partly Cloudy,0,2013-07-24 15:53:00
12:30 PM,80.6,69.8,70,29.92,10.0,West,8.1,-,N/A,,Mostly Cloudy,260,2013-07-24 16:30:00
12:41 PM,80.6,69.8,70,29.93,10.0,WNW,4.6,-,N/A,,Mostly Cloudy,300,2013-07-24 16:41:00
12:53 PM,82.9,71.1,67,29.88,10.0,West,10.4,-,N/A,,Mostly Cloudy,270,2013-07-24 16:53:00
1:25 PM,82.4,71.6,70,29.92,10.0,Variable,4.6,-,N/A,,Mostly Cloudy,0,2013-07-24 17:25:00
1:33 PM,82.4,71.6,70,29.92,10.0,SW,9.2,-,N/A,,Scattered Clouds,230,2013-07-24 17:33:00
1:46 PM,82.4,71.6,70,29.91,10.0,SW,8.1,-,N/A,,Mostly Cloudy,230,2013-07-24 17:46:00
1:53 PM,82.0,71.1,69,29.86,10.0,WSW,9.2,-,N/A,,Mostly Cloudy,250,2013-07-24 17:53:00
2:04 PM,82.4,71.6,70,29.91,10.0,SW,6.9,-,N/A,,Mostly Cloudy,220,2013-07-24 18:04:00
2:11 PM,82.4,71.6,70,29.90,10.0,Variable,6.9,-,N/A,,Mostly Cloudy,0,2013-07-24 18:11:00
2:53 PM,82.9,72.0,69,29.85,10.0,WSW,9.2,-,N/A,,Partly Cloudy,240,2013-07-24 18:53:00
3:53 PM,82.9,72.0,69,29.83,10.0,WSW,9.2,-,N/A,,Clear,240,2013-07-24 19:53:00
4:53 PM,80.1,64.0,58,29.84,10.0,East,11.5,17.3,N/A,,Scattered Clouds,80,2013-07-24 20:53:00
5:04 PM,78.8,62.6,57,29.88,10.0,NE,11.5,-,N/A,Thunderstorm,Mostly Cloudy,40,2013-07-24 21:04:00
5:24 PM,71.6,64.4,78,29.89,1.8,NE,6.9,17.3,0.10,Rain-Thunderstorm,Heavy Thunderstorms and Rain,50,2013-07-24 21:24:00
5:31 PM,71.6,64.4,78,29.89,1.5,ENE,4.6,-,0.14,Rain,Rain,60,2013-07-24 21:31:00
5:34 PM,71.6,66.2,83,29.88,2.0,East,3.5,-,0.15,Rain,Rain,100,2013-07-24 21:34:00
5:36 PM,71.6,66.2,83,29.88,3.0,ESE,4.6,-,0.15,Rain,Rain,120,2013-07-24 21:36:00
5:53 PM,73.0,66.0,79,29.83,4.0,West,3.5,-,0.20,Rain,Rain,280,2013-07-24 21:53:00
6:53 PM,72.0,66.0,81,29.83,10.0,WSW,4.6,-,0.03,,Scattered Clouds,240,2013-07-24 22:53:00
7:53 PM,73.9,68.0,82,29.85,10.0,NNW,6.9,-,N/A,,Clear,340,2013-07-24 23:53:00
8:53 PM,73.9,68.0,82,29.85,10.0,NW,5.8,-,N/A,,Clear,310,2013-07-25 00:53:00
9:53 PM,73.0,69.1,87,29.85,10.0,WNW,5.8,-,N/A,,Clear,300,2013-07-25 01:53:00
10:53 PM,72.0,69.1,91,29.85,10.0,Calm,Calm,-,N/A,,Clear,0,2013-07-25 02:53:00
11:53 PM,73.0,70.0,90,29.86,10.0,SSW,3.5,-,N/A,,Clear,210,2013-07-25 03:53:00